カタログに戻る

STARLINK-4426

運用中通信SSO
NORAD 53484·PAYLOAD·🇺🇸 United States

打ち上げ Aug 12, 2022 から Vandenberg Space Force Base

Loading…

次のパス (今後24時間)

TLE

最新Source: CelesTrak SupGP

元期: Sep 15, 2026, 02:46 UTC

1 53484C 22099V   26258.11576389  .00019555  00000+0  60728-3 0  2587
2 53484  97.2859  15.8857 0000961  94.5304 329.0279 15.33416388    16

AllMySatでSTARLINK-4426をリアルタイム追跡

Download on the App Store